EN

Hourly Weather Elsdorf

Today, 27 October, Tuesday

Time Temperature Precipitation Wind Pressure Humidity
00:00 +8°C° 0 mm 4 mps 746 mmHg 78%
01:00 +8°C° 0 mm 4 mps 746 mmHg 80%
02:00 +7°C° 0 mm 4 mps 746 mmHg 82%
03:00 +7°C° 0 mm 4 mps 746 mmHg 84%
04:00 +7°C° 0 mm 4 mps 746 mmHg 84%
05:00 +7°C° 0 mm 4 mps 746 mmHg 84%
06:00 +7°C° 0 mm 4 mps 747 mmHg 85%
07:00 +8°C° 0.1 mm 4 mps 747 mmHg 81%
08:00 +9°C° 0.1 mm 5 mps 747 mmHg 77%
09:00 +10°C° 0.1 mm 6 mps 747 mmHg 72%
10:00 +10°C° 0 mm 6 mps 747 mmHg 69%
11:00 +11°C° 0 mm 7 mps 747 mmHg 66%
12:00 +11°C° 0 mm 7 mps 748 mmHg 63%
13:00 +11°C° 0 mm 6 mps 747 mmHg 64%
14:00 +10°C° 0 mm 6 mps 747 mmHg 65%
15:00 +10°C° 0 mm 6 mps 747 mmHg 66%
16:00 +10°C° 0 mm 6 mps 747 mmHg 67%
17:00 +10°C° 0 mm 6 mps 747 mmHg 68%
18:00 +9°C° 0 mm 6 mps 746 mmHg 69%
19:00 +10°C° 0 mm 6 mps 746 mmHg 70%
20:00 +10°C° 0 mm 7 mps 746 mmHg 72%
21:00 +11°C° 0 mm 7 mps 746 mmHg 73%
22:00 +11°C° 0.2 mm 7 mps 746 mmHg 76%
23:00 +11°C° 0.2 mm 6 mps 746 mmHg 79%

Tomorrow, 28 October, Wednesday

Time Temperature Precipitation Wind Pressure Humidity
00:00 +11°C° 0.2 mm 6 mps 746 mmHg 82%
01:00 +12°C° 0.5 mm 5 mps 746 mmHg 85%
02:00 +12°C° 0.5 mm 4 mps 746 mmHg 88%
03:00 +12°C° 0.5 mm 4 mps 746 mmHg 90%
04:00 +11°C° 0.3 mm 4 mps 747 mmHg 90%
05:00 +10°C° 0.3 mm 3 mps 748 mmHg 90%
06:00 +10°C° 0.3 mm 3 mps 748 mmHg 89%
07:00 +10°C° 0.1 mm 4 mps 749 mmHg 86%
08:00 +10°C° 0.1 mm 5 mps 749 mmHg 82%
09:00 +10°C° 0.1 mm 5 mps 750 mmHg 79%
10:00 +11°C° 0.1 mm 6 mps 750 mmHg 74%
11:00 +11°C° 0.1 mm 7 mps 750 mmHg 68%
12:00 +12°C° 0.1 mm 7 mps 750 mmHg 63%
13:00 +12°C° 0.1 mm 7 mps 750 mmHg 65%
14:00 +13°C° 0.1 mm 6 mps 750 mmHg 66%
15:00 +12°C° 0.1 mm 5 mps 750 mmHg 68%
16:00 +12°C° 0 mm 5 mps 750 mmHg 70%
17:00 +10°C° 0 mm 5 mps 750 mmHg 72%
18:00 +10°C° 0 mm 5 mps 750 mmHg 74%
19:00 +10°C° 0.2 mm 5 mps 750 mmHg 77%
20:00 +10°C° 0.2 mm 6 mps 750 mmHg 79%
21:00 +10°C° 0.2 mm 6 mps 750 mmHg 82%
22:00 +10°C° 0.6 mm 6 mps 750 mmHg 83%
23:00 +9°C° 0.6 mm 7 mps 750 mmHg 84%

Day after tomorrow, 29 October, Thursday

Time Temperature Precipitation Wind Pressure Humidity
00:00 +9°C° 0.6 mm 7 mps 751 mmHg 85%
01:00 +9°C° 0.7 mm 7 mps 751 mmHg 84%
02:00 +9°C° 0.7 mm 7 mps 751 mmHg 83%
03:00 +9°C° 0.7 mm 6 mps 752 mmHg 82%
04:00 +8°C° 0.1 mm 6 mps 752 mmHg 83%
05:00 +8°C° 0.1 mm 6 mps 753 mmHg 83%
06:00 +7°C° 0.1 mm 5 mps 754 mmHg 84%
07:00 +8°C° 0.1 mm 6 mps 754 mmHg 80%
08:00 +9°C° 0.1 mm 6 mps 755 mmHg 77%
09:00 +9°C° 0.1 mm 6 mps 755 mmHg 74%
10:00 +10°C° 0 mm 6 mps 756 mmHg 72%
11:00 +11°C° 0 mm 6 mps 756 mmHg 69%
12:00 +11°C° 0 mm 6 mps 757 mmHg 67%
13:00 +12°C° 0.1 mm 5 mps 757 mmHg 70%
14:00 +12°C° 0.1 mm 4 mps 757 mmHg 73%
15:00 +12°C° 0.1 mm 4 mps 757 mmHg 76%
16:00 +12°C° 0.1 mm 4 mps 757 mmHg 79%
17:00 +12°C° 0.1 mm 4 mps 757 mmHg 81%
18:00 +11°C° 0.1 mm 4 mps 758 mmHg 84%
19:00 +11°C° 0.2 mm 4 mps 758 mmHg 84%
20:00 +12°C° 0.2 mm 5 mps 758 mmHg 85%
21:00 +12°C° 0.2 mm 5 mps 758 mmHg 85%
22:00 +12°C° 0.2 mm 5 mps 758 mmHg 84%
23:00 +11°C° 0.2 mm 6 mps 757 mmHg 84%

30 October, Friday

Time Temperature Precipitation Wind Pressure Humidity
00:00 +11°C° 0.2 mm 6 mps 757 mmHg 83%
01:00 +12°C° 0 mm 5 mps 757 mmHg 83%
02:00 +12°C° 0 mm 5 mps 757 mmHg 84%
03:00 +12°C° 0 mm 5 mps 758 mmHg 84%
04:00 +12°C° 0 mm 5 mps 758 mmHg 84%
05:00 +12°C° 0 mm 5 mps 758 mmHg 83%
06:00 +12°C° 0 mm 5 mps 758 mmHg 83%
07:00 +13°C° 0 mm 6 mps 758 mmHg 82%
08:00 +13°C° 0 mm 6 mps 758 mmHg 82%
09:00 +13°C° 0 mm 6 mps 758 mmHg 81%
10:00 +14°C° 0 mm 6 mps 759 mmHg 80%
11:00 +14°C° 0 mm 6 mps 759 mmHg 78%
12:00 +14°C° 0 mm 6 mps 759 mmHg 76%
13:00 +14°C° 0 mm 5 mps 759 mmHg 77%
14:00 +14°C° 0 mm 5 mps 759 mmHg 78%
15:00 +14°C° 0 mm 4 mps 760 mmHg 79%
16:00 +14°C° 0 mm 4 mps 760 mmHg 79%
17:00 +14°C° 0 mm 4 mps 760 mmHg 79%
18:00 +14°C° 0 mm 4 mps 760 mmHg 79%
19:00 +13°C° 0 mm 3 mps 760 mmHg 81%
20:00 +13°C° 0 mm 3 mps 761 mmHg 83%
21:00 +13°C° 0 mm 3 mps 761 mmHg 84%
22:00 +12°C° 0 mm 3 mps 761 mmHg 86%
23:00 +11°C° 0 mm 3 mps 761 mmHg 88%

31 October, Saturday

Time Temperature Precipitation Wind Pressure Humidity
00:00 +11°C° 0 mm 3 mps 760 mmHg 89%
01:00 +11°C° 0 mm 3 mps 760 mmHg 90%
02:00 +10°C° 0 mm 2 mps 760 mmHg 90%
03:00 +10°C° 0 mm 2 mps 760 mmHg 90%
04:00 +9°C° 0 mm 2 mps 760 mmHg 90%
05:00 +9°C° 0 mm 2 mps 760 mmHg 90%
06:00 +9°C° 0 mm 2 mps 760 mmHg 90%
07:00 +10°C° 0 mm 3 mps 760 mmHg 86%
08:00 +11°C° 0 mm 3 mps 760 mmHg 81%
09:00 +13°C° 0 mm 3 mps 760 mmHg 77%
10:00 +14°C° 0 mm 3 mps 759 mmHg 73%
11:00 +16°C° 0 mm 3 mps 759 mmHg 69%
12:00 +17°C° 0 mm 2 mps 759 mmHg 65%
13:00 +17°C° 0 mm 2 mps 759 mmHg 66%
14:00 +17°C° 0 mm 2 mps 758 mmHg 68%
15:00 +17°C° 0 mm 2 mps 758 mmHg 70%
16:00 +15°C° 0 mm 2 mps 758 mmHg 74%
17:00 +13°C° 0 mm 3 mps 758 mmHg 78%
18:00 +12°C° 0 mm 3 mps 758 mmHg 82%
19:00 +11°C° 0 mm 3 mps 759 mmHg 82%
20:00 +12°C° 0 mm 2 mps 759 mmHg 82%
21:00 +12°C° 0 mm 2 mps 759 mmHg 81%
22:00 +12°C° 0 mm 2 mps 759 mmHg 81%
23:00 +12°C° 0 mm 2 mps 759 mmHg 81%

1 November, Sunday

Time Temperature Precipitation Wind Pressure Humidity
00:00 +11°C° 0 mm 3 mps 759 mmHg 81%
01:00 +11°C° 0 mm 3 mps 758 mmHg 83%
02:00 +11°C° 0 mm 3 mps 758 mmHg 85%
03:00 +11°C° 0 mm 3 mps 758 mmHg 86%
04:00 +11°C° 0 mm 3 mps 758 mmHg 86%
05:00 +11°C° 0 mm 3 mps 758 mmHg 86%
06:00 +12°C° 0 mm 3 mps 758 mmHg 86%
07:00 +13°C° 0 mm 4 mps 758 mmHg 83%
08:00 +14°C° 0 mm 4 mps 758 mmHg 80%
09:00 +15°C° 0 mm 4 mps 758 mmHg 77%
10:00 +15°C° 0 mm 4 mps 758 mmHg 76%
11:00 +17°C° 0 mm 4 mps 758 mmHg 75%
12:00 +17°C° 0 mm 4 mps 758 mmHg 73%
13:00 +17°C° 0 mm 4 mps 757 mmHg 73%
14:00 +17°C° 0 mm 4 mps 757 mmHg 73%
15:00 +17°C° 0 mm 4 mps 757 mmHg 72%
16:00 +17°C° 0 mm 4 mps 757 mmHg 75%
17:00 +15°C° 0 mm 4 mps 757 mmHg 78%
18:00 +15°C° 0 mm 4 mps 757 mmHg 80%
19:00 +15°C° 0 mm 4 mps 757 mmHg 80%
20:00 +15°C° 0 mm 4 mps 757 mmHg 79%
21:00 +15°C° 0 mm 4 mps 757 mmHg 79%
22:00 +15°C° 0 mm 4 mps 757 mmHg 78%
23:00 +15°C° 0 mm 4 mps 757 mmHg 77%
Show more

We Need Your Consent

Meteoprog and our Service Providers may store and access personal data such as cookies, device identifiers or other similar technologies on your device and process such data to personalise content and ads, as well as provide social media features and to analyse the traffic.

  • Store and/or access information on your device

    Cookies, device identifiers or other information can be stored or accessed on your device for the purposes indicated above.

  • Personalised ads and content, ad and content measurement, audience insights, and products development

    Ads and content can be personalised based on a profile. More data can be added to better personalise ads and content. Ad and content performance can be measured. Insights about the audience who saw the ads and content can be derived. Such data can be used to develop or improve user’s experience, systems and software.

By clicking ‘I Agree’ you will allow the use of indicated cookies, device identifiers, web beacons or other similar technologies. Your settings can be changed in the browser on your device.

For certain purposes, legitimate interests may be relied on, rather than consent. You can read more about this in our Privacy and Cookie Policy.